DateTimeUTC,F1_A11,F1_S11,BsB_S11,BsG_S11,BsR_S11,BbsB_S11,BbsG_S11,BbsR_S11,BaB_A11,BaG_A11,BaR_A11,Tu_S11,T_S11,Uu_S11,U_S11,P_S11,T1_A11
2021-05-26T12:00:00Z,00000200,20000000,,,,,,,0000.16,-000.02,-000.05,17.0,23.4,11.0,07.4,0674.6,30.8
2021-05-26T12:01:00Z,00000200,20000000,,,,,,,0000.22,0000.20,0000.16,17.0,23.4,11.0,07.4,0674.6,30.8
2021-05-26T12:02:00Z,00000200,20000000,,,,,,,-000.10,0000.16,0000.11,17.0,23.4,11.0,07.4,0674.6,30.8
2021-05-26T12:03:00Z,00000200,60000000,,,,,,,0000.62,0000.61,0000.65,17.0,23.4,11.0,07.4,0674.6,30.8
2021-05-26T12:04:00Z,00000200,40000000,0008.67,0006.41,0004.26,0001.61,0000.69,0000.25,-000.10,0000.19,0000.82,17.1,23.2,11.2,07.6,0675.8,30.8
2021-05-26T12:05:00Z,00000200,00000000,0008.74,0006.86,0004.14,0000.96,0000.56,0000.66,0000.50,0000.44,0000.54,17.1,23.2,11.3,07.8,0676.0,30.8
2021-05-26T12:06:00Z,00000200,00000000,0008.89,0006.90,0004.40,0000.60,0000.68,0000.43,0000.25,0000.60,0000.67,17.1,23.2,11.4,07.8,0676.0,30.8
2021-05-26T12:07:00Z,00000200,00000000,0008.32,0006.97,0003.92,0000.92,0000.58,0000.67,0000.33,0000.23,0000.61,17.1,23.2,11.4,07.9,0675.9,30.8
2021-05-26T12:08:00Z,00000200,00000000,0008.25,0006.39,0004.04,0000.58,0000.59,0000.47,0000.25,0000.37,0000.55,17.1,23.2,11.5,07.9,0675.8,30.8
2021-05-26T12:09:00Z,00000200,00000000,0007.93,0006.06,0004.23,0000.57,0000.22,0000.48,0000.44,0000.18,0000.46,17.1,23.2,11.5,07.9,0675.8,30.8
2021-05-26T12:10:00Z,00000200,00000000,0007.59,0006.41,0003.87,0000.78,0000.74,0000.30,0000.06,0000.32,0000.36,17.1,23.2,11.5,07.9,0675.8,30.8
2021-05-26T12:11:00Z,00000200,00000000,0008.28,0006.55,0004.17,0000.93,0000.55,0000.83,0000.03,0000.40,0000.35,17.1,23.2,11.5,07.9,0675.8,30.8
2021-05-26T12:12:00Z,00000200,00000000,0008.75,0006.49,0004.08,0001.03,0000.46,0000.78,-000.01,0000.20,0000.77,17.2,23.2,11.4,07.8,0676.0,30.8
2021-05-26T12:13:00Z,00000200,00000000,0008.20,0006.47,0004.12,0001.25,0000.54,0000.69,0000.10,0000.27,0000.47,17.2,23.2,11.4,07.8,0675.9,30.8
2021-05-26T12:14:00Z,00000200,00000000,0008.55,0006.11,0003.85,0000.87,0000.67,0000.48,0000.48,0000.50,0000.51,17.2,23.2,11.5,07.9,0675.8,30.8
2021-05-26T12:15:00Z,00000200,00000000,0008.40,0006.56,0004.16,0001.21,0000.54,0000.49,0000.04,0000.08,0000.16,17.2,23.2,11.4,07.9,0675.9,30.8
2021-05-26T12:16:00Z,00000200,00000000,0008.34,0006.37,0004.24,0000.36,0000.52,0000.46,-000.03,0000.19,0000.89,17.2,23.2,11.4,07.8,0675.9,30.8
2021-05-26T12:17:00Z,00000200,00000000,0009.05,0006.80,0004.58,0000.95,0000.47,0000.76,0000.10,-000.45,0000.16,17.2,23.2,11.5,07.9,0675.8,30.8
2021-05-26T12:18:00Z,00000200,00000000,0008.84,0006.64,0003.81,0001.05,0000.44,0000.38,-000.09,0000.50,0000.21,17.2,23.2,11.2,07.7,0675.9,30.8
2021-05-26T12:19:00Z,00000200,00000000,0008.47,0006.87,0004.22,0001.55,0000.69,0000.54,0000.51,0000.67,0000.88,17.2,23.2,11.2,07.8,0676.0,30.8
2021-05-26T12:20:00Z,00000200,00000000,0009.27,0006.42,0004.16,0000.87,0000.44,0000.66,0000.13,0000.17,0000.54,17.3,23.3,11.3,07.8,0675.9,30.8
2021-05-26T12:21:00Z,00000200,00000000,0008.30,0006.75,0003.97,0000.43,0000.48,0000.76,0000.43,0000.46,0000.65,17.3,23.3,11.4,07.8,0676.0,30.8
2021-05-26T12:22:00Z,00000200,00000000,0008.02,0006.80,0004.27,0000.72,0000.57,0000.70,0000.13,0000.46,0000.34,17.3,23.3,11.5,07.9,0675.9,30.8
2021-05-26T12:23:00Z,00000200,00000000,0007.57,0006.34,0004.26,0000.90,0000.50,0000.67,0000.31,0000.24,0000.60,17.3,23.3,11.6,08.0,0675.9,30.8
2021-05-26T12:24:00Z,00000200,00000000,0008.31,0006.40,0004.28,0001.20,0000.43,0000.38,0000.30,0000.33,0000.42,17.3,23.3,11.5,08.0,0675.8,30.8
2021-05-26T12:25:00Z,00000200,00000000,0008.99,0006.53,0004.30,0001.03,0000.42,0000.55,-000.37,-000.11,0000.44,17.3,23.3,11.4,07.9,0675.8,30.8
2021-05-26T12:26:00Z,00000200,00000000,0008.30,0006.12,0004.38,0001.05,0000.54,0000.52,0000.48,0000.59,0000.78,17.3,23.3,11.5,07.9,0676.0,30.8
2021-05-26T12:27:00Z,00000200,00000000,0008.44,0006.41,0004.05,0001.39,0000.69,0000.58,0000.15,0000.12,0000.06,17.4,23.3,11.5,08.0,0675.9,30.8
2021-05-26T12:28:00Z,00000200,00000000,0007.26,0006.43,0004.29,0000.57,0000.46,0000.49,0000.21,0000.38,0000.86,17.4,23.3,11.5,08.0,0676.0,30.8
2021-05-26T12:29:00Z,00000200,00000000,0007.47,0006.19,0003.66,0000.32,0000.68,0000.37,-000.05,0000.06,0000.50,17.4,23.3,11.7,08.1,0676.0,30.8
2021-05-26T12:30:00Z,00000200,00000000,0008.13,0005.64,0004.24,0001.21,0000.42,0000.46,0000.40,0000.56,0000.37,17.4,23.3,11.7,08.1,0675.9,30.8
2021-05-26T12:31:00Z,00000200,00000000,0007.86,0005.71,0004.10,0000.89,0000.55,0000.57,0000.19,-000.09,0000.29,17.4,23.4,11.8,08.2,0676.0,30.8
2021-05-26T12:32:00Z,00000200,00000000,0007.93,0006.33,0004.07,0001.22,0000.71,0000.38,-000.08,0000.32,0000.38,17.4,23.3,11.7,08.1,0676.1,30.8
2021-05-26T12:33:00Z,00000200,00000000,0007.78,0006.08,0003.74,0001.09,0000.70,0000.47,0000.17,0000.18,0000.72,17.4,23.4,11.7,08.1,0675.9,30.8
2021-05-26T12:34:00Z,00000200,00000000,0008.22,0006.04,0004.04,0000.79,0000.71,0000.55,0000.07,0000.08,0000.35,17.4,23.4,11.6,08.0,0676.1,30.8
2021-05-26T12:35:00Z,00000200,00000000,0007.80,0006.62,0004.03,0001.13,0000.74,0000.59,0000.15,0000.12,0000.20,17.5,23.4,11.5,08.0,0676.1,30.8
2021-05-26T12:36:00Z,00000200,00000000,0008.33,0006.21,0004.10,0000.66,0000.48,0000.46,-000.13,0000.42,0000.42,17.5,23.4,11.5,08.0,0676.0,30.8
2021-05-26T12:37:00Z,00000200,00000000,0008.11,0006.28,0004.10,0000.69,0000.93,0000.63,0000.43,0000.10,0000.72,17.5,23.4,11.4,07.9,0676.0,30.8
2021-05-26T12:38:00Z,00000200,00000000,0008.88,0006.41,0003.58,0000.79,0000.61,0000.58,-000.49,-000.22,-000.13,17.5,23.4,11.4,07.9,0675.8,30.8
2021-05-26T12:39:00Z,00000200,00000000,0008.24,0006.85,0004.10,0001.07,0000.76,0000.66,0000.21,0000.09,0000.25,17.5,23.4,11.3,07.8,0676.0,30.8
2021-05-26T12:40:00Z,00000200,00000000,0008.97,0006.31,0004.20,0000.84,0000.54,0000.42,-000.14,0000.52,0000.54,17.5,23.4,11.3,07.8,0676.0,30.8
2021-05-26T12:41:00Z,00000200,00000000,0008.82,0006.81,0004.14,0001.02,0000.65,0000.76,0000.47,0000.08,0000.65,17.5,23.4,11.2,07.7,0675.8,30.8
2021-05-26T12:42:00Z,00000200,00000000,0007.50,0006.64,0004.29,0001.20,0000.78,0000.60,0000.45,0000.27,0000.56,17.5,23.4,11.3,07.8,0675.7,30.8
2021-05-26T12:43:00Z,00000200,00000000,0008.19,0006.47,0004.38,0000.58,0000.51,0000.49,-000.09,0000.81,0000.69,17.5,23.5,11.3,07.8,0675.9,30.8
2021-05-26T12:44:00Z,00000200,00000000,0008.44,0006.74,0004.17,0000.47,0000.77,0000.45,0000.16,0000.15,0000.32,17.5,23.5,11.4,07.9,0675.9,30.8
2021-05-26T12:45:00Z,00000200,00000000,0008.42,0006.75,0004.00,0001.20,0000.56,0000.65,0000.31,0000.07,0000.43,17.6,23.5,11.3,07.9,0675.7,30.8
2021-05-26T12:46:00Z,00000200,00000000,0008.06,0006.48,0004.31,0000.50,0000.59,0000.72,-000.16,0000.20,0000.56,17.5,23.5,11.3,07.8,0675.7,30.9
2021-05-26T12:47:00Z,00000200,00000000,0008.64,0006.15,0004.00,0000.79,0000.50,0000.47,0000.56,0000.33,0000.69,17.6,23.5,11.2,07.8,0675.7,30.9
2021-05-26T12:48:00Z,00000200,00000000,0009.18,0006.58,0004.06,0001.18,0000.57,0000.65,-000.02,0000.16,0000.03,17.6,23.5,11.3,07.9,0675.9,30.8
2021-05-26T12:49:00Z,00000200,00000000,0008.93,0006.68,0004.47,0000.90,0000.63,0000.61,0000.25,0000.45,0000.71,17.6,23.5,11.3,07.8,0676.0,30.8
2021-05-26T12:50:00Z,00000200,00000000,0008.41,0006.37,0004.28,0000.37,0000.48,0000.59,0000.20,0000.32,0000.38,17.6,23.5,11.3,07.8,0676.1,30.8
2021-05-26T12:51:00Z,00000200,00000000,0008.58,0005.83,0003.95,0000.89,0000.62,0000.54,0000.23,-000.06,0000.46,17.6,23.5,11.3,07.8,0675.8,30.8
2021-05-26T12:52:00Z,00000200,00000000,0008.50,0005.81,0004.02,0001.06,0000.52,0000.46,0000.02,0000.52,0000.33,17.6,23.5,11.2,07.8,0675.8,30.8
2021-05-26T12:53:00Z,00000200,00000000,0007.85,0005.89,0003.76,0000.89,0000.80,0000.22,-000.23,-000.30,0000.28,17.6,23.5,11.1,07.7,0675.8,30.8
2021-05-26T12:54:00Z,00000200,00000000,0008.31,0005.99,0003.96,0000.62,0000.42,0000.27,0000.17,0000.36,0000.70,17.6,23.5,11.0,07.7,0675.9,30.8
2021-05-26T12:55:00Z,00000200,00000000,0008.62,0006.11,0004.01,0001.39,0000.26,0000.48,0000.68,0001.00,0000.78,17.6,23.5,11.1,07.7,0676.2,30.8
2021-05-26T12:56:00Z,00000200,00000000,0007.70,0006.04,0003.99,0001.21,0000.75,0000.57,-000.09,-000.19,-000.24,17.6,23.5,11.3,07.9,0676.0,30.8
2021-05-26T12:57:00Z,00000200,40000000,,,,,,,-000.32,0000.05,0000.48,17.6,23.6,11.4,07.9,0675.9,30.8
2021-05-26T12:58:00Z,00000200,60000000,,,,,,,0000.31,0000.34,0000.26,17.5,23.6,11.1,07.6,0675.0,30.8
2021-05-26T12:59:00Z,00000200,20000000,,,,,,,-000.33,-000.56,-000.33,17.4,23.7,11.2,07.6,0675.0,30.8
